This is the latest recevied weather packets stored in our database for station/object KM5R. If no packets are shown the sender has not sent any weather packets the latest 10 day(s).
| Time | Temp. | Humidity | Pressure | Rain* | Wind** | Luminosity | Snow |
|---|---|---|---|---|---|---|---|
| 1777843835 | 25.56° C | 33% | 1019.5 hPa | 0 mm | - | 254 W/m² | - |
| 1777843533 | 25° C | 35% | 1019.4 hPa | 0 mm | - | 554 W/m² | - |
| 1777843230 | 25.56° C | 35% | 1019.7 hPa | 0 mm | - | 471 W/m² | - |
| 1777842927 | 25.56° C | 33% | 1019.6 hPa | 0 mm | - | 285 W/m² | - |
| 1777842622 | 26.11° C | 33% | 1019.9 hPa | 0 mm | - | 662 W/m² | - |
| 1777842319 | 26.11° C | 32% | 1020 hPa | 0 mm | - | 630 W/m² | - |
| 1777842015 | 25.56° C | 33% | 1020.1 hPa | 0 mm | - | 647 W/m² | - |
| 1777841712 | 25.56° C | 30% | 1020.2 hPa | 0 mm | - | 536 W/m² | - |
| 1777841408 | 25.56° C | 31% | 1020.2 hPa | 0 mm | - | 607 W/m² | - |
| 1777841105 | 25.56° C | 30% | 1020.4 hPa | 0 mm | - | 659 W/m² | - |
| 1777840802 | 25.56° C | 31% | 1020.3 hPa | 0 mm | - | 699 W/m² | - |
| 1777840499 | 25.56° C | 30% | 1020.5 hPa | 0 mm | - | 678 W/m² | - |
| 1777840196 | 25.56° C | 31% | 1020.6 hPa | 0 mm | - | 697 W/m² | - |
| 1777839894 | 25° C | 30% | 1020.7 hPa | 0 mm | - | 710 W/m² | - |
| 1777839592 | 25° C | 30% | 1020.9 hPa | 0 mm | - | 724 W/m² | - |
| 1777839290 | 25.56° C | 29% | 1020.7 hPa | 0 mm | - | 731 W/m² | - |
| 1777838987 | 25° C | 30% | 1021 hPa | 0 mm | - | 728 W/m² | - |
| 1777838683 | 25.56° C | 28% | 1021.1 hPa | 0 mm | - | 744 W/m² | - |
| 1777838380 | 25.56° C | 28% | 1021.5 hPa | 0 mm | - | 751 W/m² | - |
| 1777838077 | 25.56° C | 30% | 1021.5 hPa | 0 mm | - | 760 W/m² | - |
| 1777837773 | 25° C | 30% | 1021.4 hPa | 0 mm | - | 739 W/m² | - |
| 1777837471 | 25.56° C | 30% | 1021.4 hPa | 0 mm | - | 716 W/m² | - |
| 1777837166 | 25° C | 31% | 1021.6 hPa | 0 mm | - | 758 W/m² | - |
| 1777836862 | 25° C | 32% | 1021.6 hPa | 0 mm | - | 761 W/m² | - |
| 1777836557 | 25° C | 30% | 1021.7 hPa | 0 mm | - | 748 W/m² | - |
* Rain latest hour (hover to see other rain measurements)
** Current wind speed in m/s (hover to see current wind gust speed)